| time (UTC) | temp F | wind direction | speed MPH | gust MPH | rain 1hr in | rain 24hr in | rain mn in | humidity % | barometer mb |
| 20260902005548 | 69 | 0 | 1.0 | 8.0 | 0.00 | 0.00 | 0.00 | 39 | 1012.7 |
| 20260902005043 | 69 | 215 | 2.0 | 8.0 | 0.00 | 0.00 | 0.00 | 39 | 1012.8 |
| 20260902004555 | 69 | 221 | 2.0 | 9.0 | 0.00 | 0.00 | 0.00 | 38 | 1012.9 |
| 20260902004042 | 69 | 0 | 2.0 | 10.0 | 0.00 | 0.00 | 0.00 | 38 | 1012.8 |
| 20260902003542 | 69 | 180 | 4.0 | 10.0 | 0.00 | 0.00 | 0.00 | 36 | 1012.8 |
| 20260902003101 | 70 | 222 | 3.0 | 9.0 | 0.00 | 0.00 | 0.00 | 35 | 1012.9 |
| 20260902002542 | 71 | 213 | 3.0 | 9.0 | 0.00 | 0.00 | 0.00 | 35 | 1012.8 |
| 20260902002042 | 71 | 227 | 3.0 | 8.0 | 0.00 | 0.00 | 0.00 | 35 | 1012.8 |
| 20260902001551 | 71 | 245 | 3.0 | 9.0 | 0.00 | 0.00 | 0.00 | 34 | 1012.8 |
| 20260902001046 | 71 | 262 | 2.0 | 9.0 | 0.00 | 0.00 | 0.00 | 34 | 1012.8 |
| 20260902000541 | 71 | 196 | 2.0 | 7.0 | 0.00 | 0.00 | 0.00 | 34 | 1012.7 |
| 20260902000052 | 71 | 220 | 2.0 | 9.0 | 0.00 | 0.00 | 0.00 | 34 | 1012.8 |
| 20260901235539 | 72 | 205 | 3.0 | 9.0 | 0.00 | 0.00 | 0.00 | 34 | 1012.8 |
| 20260901235042 | 72 | 225 | 3.0 | 8.0 | 0.00 | 0.00 | 0.00 | 33 | 1012.8 |
| 20260901234606 | 72 | 226 | 1.0 | 11.0 | 0.00 | 0.00 | 0.00 | 34 | 1012.8 |
| 20260901234044 | 72 | 225 | 3.0 | 11.0 | 0.00 | 0.00 | 0.00 | 33 | 1012.8 |
| 20260901233543 | 72 | 213 | 3.0 | 9.0 | 0.00 | 0.00 | 0.00 | 33 | 1012.8 |
| 20260901233104 | 72 | 246 | 1.0 | 11.0 | 0.00 | 0.00 | 0.00 | 33 | 1012.7 |
| 20260901232542 | 72 | 182 | 4.0 | 12.0 | 0.00 | 0.00 | 0.00 | 32 | 1012.7 |
| 20260901232045 | 72 | 210 | 3.0 | 12.0 | 0.00 | 0.00 | 0.00 | 32 | 1012.8 |
| 20260901231553 | 72 | 228 | 3.0 | 13.0 | 0.00 | 0.00 | 0.00 | 33 | 1012.9 |
| 20260901231042 | 73 | 204 | 4.0 | 13.0 | 0.00 | 0.00 | 0.00 | 32 | 1012.9 |
| 20260901230542 | 73 | 0 | 3.0 | 10.0 | 0.00 | 0.00 | 0.00 | 33 | 1012.9 |
| 20260901225542 | 73 | 207 | 4.0 | 14.0 | 0.00 | 0.00 | 0.00 | 31 | 1012.9 |
| 20260901225043 | 73 | 0 | 3.0 | 13.0 | 0.00 | 0.00 | 0.00 | 32 | 1013.0 |
| 20260901224559 | 73 | 195 | 4.0 | 13.0 | 0.00 | 0.00 | 0.00 | 32 | 1012.9 |
| 20260901224043 | 73 | 192 | 3.0 | 9.0 | 0.00 | 0.00 | 0.00 | 32 | 1012.9 |
| 20260901223543 | 73 | 225 | 3.0 | 9.0 | 0.00 | 0.00 | 0.00 | 32 | 1013.0 |
| 20260901223101 | 72 | 196 | 2.0 | 8.0 | 0.00 | 0.00 | 0.00 | 32 | 1012.9 |
| 20260901222543 | 72 | 227 | 3.0 | 12.0 | 0.00 | 0.00 | 0.00 | 32 | 1013.0 |
| 20260901222042 | 72 | 217 | 5.0 | 12.0 | 0.00 | 0.00 | 0.00 | 32 | 1013.0 |
| 20260901221618 | 72 | 235 | 4.0 | 10.0 | 0.00 | 0.00 | 0.00 | 32 | 1013.1 |
| 20260901221043 | 72 | 219 | 2.0 | 11.0 | 0.00 | 0.00 | 0.00 | 33 | 1013.0 |
| 20260901220542 | 72 | 210 | 6.0 | 11.0 | 0.00 | 0.00 | 0.00 | 33 | 1013.3 |
| 20260901220051 | 73 | 186 | 4.0 | 10.0 | 0.00 | 0.00 | 0.00 | 34 | 1013.2 |
| 20260901215543 | 73 | 229 | 2.0 | 8.0 | 0.00 | 0.00 | 0.00 | 34 | 1013.2 |
| 20260901215043 | 73 | 240 | 2.0 | 9.0 | 0.00 | 0.00 | 0.00 | 32 | 1013.3 |
| 20260901214551 | 74 | 199 | 3.0 | 10.0 | 0.00 | 0.00 | 0.00 | 32 | 1013.5 |
| 20260901214043 | 73 | 202 | 1.0 | 10.0 | 0.00 | 0.00 | 0.00 | 32 | 1013.3 |
| 20260901213543 | 73 | 187 | 1.0 | 7.0 | 0.00 | 0.00 | 0.00 | 32 | 1013.3 |
| 20260901213104 | 73 | 190 | 2.0 | 9.0 | 0.00 | 0.00 | 0.00 | 32 | 1013.4 |
| 20260901212544 | 73 | 200 | 4.0 | 10.0 | 0.00 | 0.00 | 0.00 | 32 | 1013.4 |
| 20260901212043 | 73 | 215 | 3.0 | 13.0 | 0.00 | 0.00 | 0.00 | 31 | 1013.3 |
| 20260901211554 | 73 | 205 | 3.0 | 13.0 | 0.00 | 0.00 | 0.00 | 31 | 1013.3 |
| 20260901211042 | 73 | 206 | 1.0 | 11.0 | 0.00 | 0.00 | 0.00 | 34 | 1013.3 |
| 20260901210542 | 72 | 231 | 3.0 | 11.0 | 0.00 | 0.00 | 0.00 | 31 | 1013.4 |
| 20260901210052 | 71 | 0 | 2.0 | 8.0 | 0.00 | 0.00 | 0.00 | 33 | 1013.3 |
| 20260901205543 | 72 | 215 | 2.0 | 8.0 | 0.00 | 0.00 | 0.00 | 33 | 1013.3 |
| 20260901205043 | 72 | 208 | 1.0 | 8.0 | 0.00 | 0.00 | 0.00 | 32 | 1013.3 |
| 20260901204552 | 71 | 219 | 1.0 | 9.0 | 0.00 | 0.00 | 0.00 | 33 | 1013.2 |
| 20260901204043 | 71 | 207 | 3.0 | 11.0 | 0.00 | 0.00 | 0.00 | 33 | 1013.3 |
| 20260901203544 | 71 | 206 | 4.0 | 11.0 | 0.00 | 0.00 | 0.00 | 33 | 1013.4 |
| 20260901203102 | 71 | 237 | 1.0 | 8.0 | 0.00 | 0.00 | 0.00 | 33 | 1013.5 |
| 20260901202542 | 70 | 252 | 3.0 | 9.0 | 0.00 | 0.00 | 0.00 | 34 | 1013.6 |
| 20260901202042 | 70 | 210 | 1.0 | 9.0 | 0.00 | 0.00 | 0.00 | 36 | 1013.6 |
| 20260901201556 | 70 | 225 | 3.0 | 7.0 | 0.00 | 0.00 | 0.00 | 36 | 1013.8 |
| 20260901201042 | 70 | 230 | 2.0 | 9.0 | 0.00 | 0.00 | 0.00 | 36 | 1013.8 |
| 20260901200542 | 70 | 192 | 5.0 | 10.0 | 0.00 | 0.00 | 0.00 | 34 | 1014.0 |
| 20260901200052 | 71 | 209 | 2.0 | 10.0 | 0.00 | 0.00 | 0.00 | 35 | 1014.0 |
| 20260901195543 | 71 | 207 | 2.0 | 12.0 | 0.00 | 0.00 | 0.00 | 35 | 1014.0 |
| 20260901195042 | 71 | 218 | 3.0 | 12.0 | 0.00 | 0.00 | 0.00 | 34 | 1014.1 |
| 20260901194600 | 70 | 198 | 1.0 | 8.0 | 0.00 | 0.00 | 0.00 | 36 | 1014.0 |
| 20260901194042 | 70 | 209 | 3.0 | 9.0 | 0.00 | 0.00 | 0.00 | 35 | 1014.0 |
| 20260901193542 | 71 | 229 | 4.0 | 9.0 | 0.00 | 0.00 | 0.00 | 35 | 1014.1 |
| 20260901193110 | 71 | 184 | 1.0 | 8.0 | 0.00 | 0.00 | 0.00 | 37 | 1014.2 |
| 20260901192542 | 70 | 214 | 1.0 | 6.0 | 0.00 | 0.00 | 0.00 | 40 | 1014.1 |
| 20260901192042 | 70 | 0 | 1.0 | 7.0 | 0.00 | 0.00 | 0.00 | 38 | 1014.1 |
| 20260901191557 | 69 | 0 | 2.0 | 9.0 | 0.00 | 0.00 | 0.00 | 40 | 1014.4 |
| 20260901191039 | 68 | 281 | 3.0 | 9.0 | 0.00 | 0.00 | 0.00 | 40 | 1014.3 |
| 20260901190539 | 68 | 215 | 3.0 | 8.0 | 0.00 | 0.00 | 0.00 | 40 | 1014.2 |
| 20260901190100 | 68 | 246 | 2.0 | 7.0 | 0.00 | 0.00 | 0.00 | 40 | 1014.2 |
| 20260901185543 | 67 | 0 | 1.0 | 5.0 | 0.00 | 0.00 | 0.00 | 41 | 1014.3 |
| 20260901185042 | 67 | 197 | 0.0 | 6.0 | 0.00 | 0.00 | 0.00 | 43 | 1014.2 |
| 20260901184606 | 67 | 202 | 1.0 | 6.0 | 0.00 | 0.00 | 0.00 | 41 | 1014.3 |
| 20260901184043 | 67 | 232 | 2.0 | 6.0 | 0.00 | 0.00 | 0.00 | 43 | 1014.3 |
| 20260901183546 | 66 | 252 | 1.0 | 6.0 | 0.00 | 0.00 | 0.00 | 44 | 1014.3 |
| 20260901183058 | 66 | 217 | 2.0 | 6.0 | 0.00 | 0.00 | 0.00 | 42 | 1014.2 |
| 20260901182546 | 67 | 0 | 2.0 | 6.0 | 0.00 | 0.00 | 0.00 | 41 | 1014.3 |
| 20260901182043 | 67 | 207 | 1.0 | 6.0 | 0.00 | 0.00 | 0.00 | 42 | 1014.3 |
| 20260901181554 | 67 | 216 | 1.0 | 8.0 | 0.00 | 0.00 | 0.00 | 43 | 1014.3 |
| 20260901181042 | 67 | 219 | 1.0 | 9.0 | 0.00 | 0.00 | 0.00 | 43 | 1014.4 |
| 20260901180547 | 67 | 205 | 4.0 | 9.0 | 0.00 | 0.00 | 0.00 | 42 | 1014.2 |
| 20260901180100 | 67 | 0 | 1.0 | 5.0 | 0.00 | 0.00 | 0.00 | 43 | 1014.2 |
| 20260901175544 | 66 | 229 | 1.0 | 7.0 | 0.00 | 0.00 | 0.00 | 43 | 1014.1 |
| 20260901175042 | 65 | 234 | 1.0 | 10.0 | 0.00 | 0.00 | 0.00 | 43 | 1014.2 |
| 20260901174600 | 65 | 241 | 3.0 | 10.0 | 0.00 | 0.00 | 0.00 | 42 | 1014.0 |
| 20260901174042 | 65 | 208 | 3.0 | 10.0 | 0.00 | 0.00 | 0.00 | 44 | 1014.0 |
| 20260901173541 | 64 | 236 | 2.0 | 9.0 | 0.00 | 0.00 | 0.00 | 44 | 1014.0 |
| 20260901173053 | 64 | 219 | 1.0 | 8.0 | 0.00 | 0.00 | 0.00 | 45 | 1013.9 |
| 20260901172543 | 65 | 198 | 2.0 | 8.0 | 0.00 | 0.00 | 0.00 | 44 | 1013.9 |
| 20260901172039 | 65 | 217 | 1.0 | 6.0 | 0.00 | 0.00 | 0.00 | 43 | 1013.9 |
| 20260901171600 | 64 | 0 | 1.0 | 6.0 | 0.00 | 0.00 | 0.00 | 45 | 1013.8 |
| 20260901171044 | 64 | 0 | 0.0 | 0.0 | 0.00 | 0.00 | 0.00 | 46 | 1013.8 |
| 20260901170542 | 64 | 0 | 0.0 | 8.0 | 0.00 | 0.00 | 0.00 | 47 | 1013.6 |
| 20260901170050 | 63 | 0 | 0.0 | 8.0 | 0.00 | 0.00 | 0.00 | 46 | 1013.6 |
| 20260901165541 | 63 | 198 | 2.0 | 8.0 | 0.00 | 0.00 | 0.00 | 46 | 1013.6 |
| 20260901165042 | 63 | 219 | 2.0 | 7.0 | 0.00 | 0.00 | 0.00 | 46 | 1013.7 |
| 20260901164558 | 63 | 211 | 1.0 | 8.0 | 0.00 | 0.00 | 0.00 | 49 | 1013.7 |
| 20260901164039 | 63 | 210 | 2.0 | 8.0 | 0.00 | 0.00 | 0.00 | 50 | 1013.7 |
| 20260901163542 | 63 | 216 | 2.0 | 7.0 | 0.00 | 0.00 | 0.00 | 50 | 1013.7 |
| 20260901163056 | 63 | 207 | 3.0 | 7.0 | 0.00 | 0.00 | 0.00 | 50 | 1013.7 |
| 20260901162542 | 63 | 0 | 2.0 | 8.0 | 0.00 | 0.00 | 0.00 | 50 | 1013.6 |
| 20260901162042 | 63 | 218 | 2.0 | 8.0 | 0.00 | 0.00 | 0.00 | 49 | 1013.6 |
| 20260901161550 | 63 | 221 | 1.0 | 5.0 | 0.00 | 0.00 | 0.00 | 50 | 1013.6 |
| 20260901161047 | 63 | 0 | 0.0 | 5.0 | 0.00 | 0.00 | 0.00 | 52 | 1013.5 |
| 20260901160545 | 63 | 202 | 2.0 | 5.0 | 0.00 | 0.00 | 0.00 | 51 | 1013.6 |
| 20260901160100 | 62 | 222 | 0.0 | 7.0 | 0.00 | 0.00 | 0.00 | 52 | 1013.6 |
| 20260901155540 | 62 | 0 | 1.0 | 9.0 | 0.00 | 0.00 | 0.00 | 53 | 1013.4 |
| 20260901155042 | 62 | 224 | 2.0 | 9.0 | 0.00 | 0.00 | 0.00 | 52 | 1013.3 |
| 20260901154557 | 62 | 0 | 1.0 | 7.0 | 0.00 | 0.00 | 0.00 | 52 | 1013.2 |
| 20260901154042 | 62 | 220 | 3.0 | 7.0 | 0.00 | 0.00 | 0.00 | 52 | 1013.2 |
| 20260901153540 | 62 | 205 | 1.0 | 6.0 | 0.00 | 0.00 | 0.00 | 53 | 1013.1 |
| 20260901153053 | 62 | 229 | 2.0 | 6.0 | 0.00 | 0.00 | 0.00 | 53 | 1013.0 |
| 20260901152540 | 61 | 213 | 1.0 | 5.0 | 0.00 | 0.00 | 0.00 | 54 | 1013.0 |
| 20260901152041 | 61 | 0 | 1.0 | 5.0 | 0.00 | 0.00 | 0.00 | 53 | 1013.0 |
| 20260901151604 | 61 | 216 | 1.0 | 4.0 | 0.00 | 0.00 | 0.00 | 53 | 1013.1 |
| 20260901151041 | 61 | 236 | 0.0 | 3.0 | 0.00 | 0.00 | 0.00 | 53 | 1013.0 |
| 20260901150540 | 61 | 0 | 1.0 | 4.0 | 0.00 | 0.00 | 0.00 | 53 | 1013.0 |
| 20260901150111 | 61 | 0 | 1.0 | 4.0 | 0.00 | 0.00 | 0.00 | 53 | 1012.9 |
| 20260901145543 | 60 | 0 | 0.0 | 2.0 | 0.00 | 0.00 | 0.00 | 53 | 1012.8 |
| 20260901145040 | 60 | 0 | 0.0 | 2.0 | 0.00 | 0.00 | 0.00 | 53 | 1012.9 |
| 20260901144552 | 60 | 0 | 0.0 | 8.0 | 0.00 | 0.00 | 0.00 | 53 | 1012.8 |
| 20260901144040 | 60 | 0 | 1.0 | 8.0 | 0.00 | 0.00 | 0.00 | 53 | 1012.8 |
| 20260901143542 | 60 | 0 | 0.0 | 2.0 | 0.00 | 0.00 | 0.00 | 53 | 1012.7 |
| 20260901143106 | 60 | 0 | 0.0 | 2.0 | 0.00 | 0.00 | 0.00 | 53 | 1012.6 |
| 20260901142542 | 60 | 0 | 0.0 | 2.0 | 0.00 | 0.00 | 0.00 | 53 | 1012.5 |
| 20260901142041 | 60 | 0 | 0.0 | 2.0 | 0.00 | 0.00 | 0.00 | 53 | 1012.4 |
| 20260901141600 | 60 | 0 | 0.0 | 1.0 | 0.00 | 0.00 | 0.00 | 54 | 1012.4 |
| 20260901141041 | 60 | 0 | 0.0 | 2.0 | 0.00 | 0.00 | 0.00 | 54 | 1012.3 |
| 20260901140541 | 60 | 0 | 0.0 | 2.0 | 0.00 | 0.00 | 0.00 | 53 | 1012.3 |
| 20260901140117 | 60 | 0 | 0.0 | 2.0 | 0.00 | 0.00 | 0.00 | 54 | 1012.2 |
| 20260901135541 | 60 | 0 | 0.0 | 2.0 | 0.00 | 0.00 | 0.00 | 54 | 1012.1 |
| 20260901135045 | 60 | 0 | 0.0 | 2.0 | 0.00 | 0.00 | 0.00 | 54 | 1012.0 |
| 20260901134626 | 60 | 209 | 0.0 | 1.0 | 0.00 | 0.00 | 0.00 | 54 | 1011.9 |
| 20260901134040 | 59 | 0 | 0.0 | 1.0 | 0.00 | 0.00 | 0.00 | 54 | 1011.9 |
| 20260901133546 | 59 | 0 | 0.0 | 1.0 | 0.00 | 0.00 | 0.00 | 54 | 1011.8 |
| 20260901133059 | 59 | 0 | 0.0 | 1.0 | 0.00 | 0.00 | 0.00 | 54 | 1011.8 |
| 20260901132540 | 59 | 0 | 0.0 | 1.0 | 0.00 | 0.00 | 0.00 | 54 | 1011.8 |
| 20260901132041 | 59 | 0 | 0.0 | 1.0 | 0.00 | 0.00 | 0.00 | 55 | 1011.8 |
| 20260901131555 | 59 | 0 | 0.0 | 1.0 | 0.00 | 0.00 | 0.00 | 55 | 1011.6 |
| 20260901131041 | 59 | 0 | 0.0 | 1.0 | 0.00 | 0.00 | 0.00 | 55 | 1011.5 |
| 20260901130544 | 59 | 0 | 0.0 | 1.0 | 0.00 | 0.00 | 0.00 | 55 | 1011.5 |
| 20260901130110 | 59 | 0 | 0.0 | 1.0 | 0.00 | 0.00 | 0.00 | 55 | 1011.6 |
| 20260901125540 | 59 | 0 | 0.0 | 1.0 | 0.00 | 0.00 | 0.00 | 55 | 1011.8 |
| 20260901125040 | 59 | 0 | 0.0 | 1.0 | 0.00 | 0.00 | 0.00 | 55 | 1011.8 |
| 20260901124603 | 59 | 0 | 0.0 | 2.0 | 0.00 | 0.00 | 0.00 | 55 | 1011.6 |
| 20260901124044 | 60 | 0 | 0.0 | 2.0 | 0.00 | 0.00 | 0.00 | 55 | 1011.4 |
| 20260901123541 | 59 | 0 | 0.0 | 1.0 | 0.00 | 0.00 | 0.00 | 55 | 1011.3 |
| 20260901123052 | 60 | 0 | 0.0 | 2.0 | 0.00 | 0.00 | 0.00 | 55 | 1011.4 |
| 20260901122545 | 60 | 0 | 0.0 | 2.0 | 0.00 | 0.00 | 0.00 | 55 | 1011.3 |
| 20260901122044 | 60 | 0 | 0.0 | 1.0 | 0.00 | 0.00 | 0.00 | 55 | 1011.3 |
| 20260901121555 | 60 | 0 | 0.0 | 1.0 | 0.00 | 0.00 | 0.00 | 54 | 1011.3 |
| 20260901121042 | 60 | 0 | 0.0 | 1.0 | 0.00 | 0.00 | 0.00 | 54 | 1011.2 |
| 20260901120542 | 60 | 0 | 0.0 | 1.0 | 0.00 | 0.00 | 0.00 | 54 | 1011.2 |
| 20260901115541 | 60 | 209 | 0.0 | 2.0 | 0.00 | 0.00 | 0.00 | 54 | 1011.4 |
| 20260901115041 | 60 | 0 | 0.0 | 3.0 | 0.00 | 0.00 | 0.00 | 54 | 1011.4 |
| 20260901114553 | 60 | 0 | 0.0 | 3.0 | 0.00 | 0.00 | 0.00 | 54 | 1011.4 |
| 20260901114040 | 60 | 209 | 1.0 | 3.0 | 0.00 | 0.00 | 0.00 | 54 | 1011.4 |
| 20260901113540 | 60 | 0 | 0.0 | 4.0 | 0.00 | 0.00 | 0.00 | 54 | 1011.5 |
| 20260901113110 | 60 | 208 | 0.0 | 4.0 | 0.00 | 0.00 | 0.00 | 54 | 1011.4 |
| 20260901112542 | 60 | 0 | 0.0 | 4.0 | 0.00 | 0.00 | 0.00 | 54 | 1011.5 |
| 20260901112040 | 60 | 208 | 1.0 | 6.0 | 0.00 | 0.00 | 0.00 | 54 | 1011.5 |
| 20260901111601 | 60 | 202 | 1.0 | 6.0 | 0.00 | 0.00 | 0.00 | 54 | 1011.5 |
| 20260901111041 | 60 | 202 | 1.0 | 6.0 | 0.00 | 0.00 | 0.00 | 54 | 1011.5 |
| 20260901110540 | 60 | 221 | 1.0 | 3.0 | 0.00 | 0.00 | 0.00 | 54 | 1011.6 |
| 20260901110106 | 60 | 221 | 0.0 | 4.0 | 0.00 | 0.00 | 0.00 | 54 | 1011.4 |
| 20260901105543 | 60 | 0 | 2.0 | 4.0 | 0.00 | 0.00 | 0.00 | 54 | 1011.4 |
| 20260901105044 | 60 | 0 | 0.0 | 3.0 | 0.00 | 0.00 | 0.00 | 54 | 1011.3 |
| 20260901104601 | 60 | 0 | 0.0 | 3.0 | 0.00 | 0.00 | 0.00 | 54 | 1011.4 |
| 20260901104041 | 60 | 0 | 0.0 | 3.0 | 0.00 | 0.00 | 0.00 | 54 | 1011.4 |
| 20260901103540 | 60 | 217 | 0.0 | 1.0 | 0.00 | 0.00 | 0.00 | 54 | 1011.4 |
| 20260901103052 | 60 | 0 | 0.0 | 4.0 | 0.00 | 0.00 | 0.00 | 54 | 1011.4 |
| 20260901102540 | 60 | 0 | 0.0 | 4.0 | 0.00 | 0.00 | 0.00 | 54 | 1011.4 |
| 20260901102042 | 60 | 217 | 1.0 | 4.0 | 0.00 | 0.00 | 0.00 | 54 | 1011.4 |
| 20260901101610 | 60 | 0 | 0.0 | 3.0 | 0.00 | 0.00 | 0.00 | 54 | 1011.3 |
| 20260901101042 | 60 | 0 | 0.0 | 4.0 | 0.00 | 0.00 | 0.00 | 54 | 1011.3 |
| 20260901100539 | 60 | 211 | 1.0 | 4.0 | 0.00 | 0.00 | 0.00 | 54 | 1011.1 |
| 20260901100106 | 60 | 0 | 0.0 | 3.0 | 0.00 | 0.00 | 0.00 | 54 | 1011.2 |
| 20260901095541 | 60 | 0 | 0.0 | 2.0 | 0.00 | 0.00 | 0.00 | 54 | 1011.2 |
| 20260901095044 | 60 | 0 | 0.0 | 3.0 | 0.00 | 0.00 | 0.00 | 54 | 1011.1 |
| 20260901094554 | 60 | 211 | 0.0 | 3.0 | 0.00 | 0.00 | 0.00 | 54 | 1011.2 |
| 20260901094041 | 60 | 210 | 0.0 | 5.0 | 0.00 | 0.00 | 0.00 | 53 | 1011.2 |
| 20260901093542 | 60 | 0 | 0.0 | 5.0 | 0.00 | 0.00 | 0.00 | 53 | 1011.2 |
| 20260901093102 | 60 | 0 | 0.0 | 3.0 | 0.00 | 0.00 | 0.00 | 53 | 1011.2 |
| 20260901092542 | 60 | 217 | 0.0 | 3.0 | 0.00 | 0.00 | 0.00 | 53 | 1011.3 |
| 20260901092039 | 60 | 0 | 1.0 | 3.0 | 0.00 | 0.00 | 0.00 | 53 | 1011.4 |
| 20260901091557 | 60 | 217 | 0.0 | 3.0 | 0.00 | 0.00 | 0.00 | 54 | 1011.4 |
| 20260901091041 | 60 | 0 | 0.0 | 5.0 | 0.00 | 0.00 | 0.00 | 53 | 1011.4 |
| 20260901090540 | 60 | 217 | 1.0 | 5.0 | 0.00 | 0.00 | 0.00 | 53 | 1011.4 |
| 20260901090105 | 60 | 227 | 0.0 | 4.0 | 0.00 | 0.00 | 0.00 | 54 | 1011.5 |
| 20260901085542 | 60 | 0 | 1.0 | 4.0 | 0.00 | 0.00 | 0.00 | 54 | 1011.4 |
| 20260901085041 | 60 | 0 | 1.0 | 4.0 | 0.00 | 0.00 | 0.00 | 54 | 1011.5 |
| 20260901084550 | 60 | 221 | 1.0 | 5.0 | 0.00 | 0.00 | 0.00 | 53 | 1011.5 |
| 20260901084040 | 60 | 221 | 1.0 | 5.0 | 0.00 | 0.00 | 0.00 | 53 | 1011.4 |
| 20260901083539 | 60 | 224 | 0.0 | 4.0 | 0.00 | 0.00 | 0.00 | 54 | 1011.5 |
| 20260901083049 | 60 | 223 | 0.0 | 4.0 | 0.00 | 0.00 | 0.00 | 54 | 1011.5 |
| 20260901082539 | 60 | 222 | 1.0 | 3.0 | 0.00 | 0.00 | 0.00 | 54 | 1011.5 |
| 20260901082044 | 60 | 0 | 0.0 | 5.0 | 0.00 | 0.00 | 0.00 | 54 | 1011.3 |
| 20260901081559 | 60 | 0 | 1.0 | 5.0 | 0.00 | 0.00 | 0.00 | 54 | 1011.4 |
| 20260901081042 | 60 | 222 | 0.0 | 4.0 | 0.00 | 0.00 | 0.00 | 54 | 1011.4 |
| 20260901080542 | 60 | 222 | 1.0 | 6.0 | 0.00 | 0.00 | 0.00 | 54 | 1011.4 |
| 20260901080054 | 60 | 218 | 2.0 | 6.0 | 0.00 | 0.00 | 0.00 | 54 | 1011.5 |
| 20260901075541 | 60 | 215 | 1.0 | 7.0 | 0.00 | 0.00 | 0.00 | 54 | 1011.2 |
| 20260901075045 | 60 | 221 | 0.0 | 7.0 | 0.00 | 0.00 | 0.00 | 54 | 1011.3 |
| 20260901074551 | 60 | 230 | 1.0 | 5.0 | 0.00 | 0.00 | 0.00 | 54 | 1011.3 |
| 20260901074040 | 60 | 198 | 1.0 | 5.0 | 0.00 | 0.00 | 0.00 | 55 | 1011.3 |
| 20260901073540 | 60 | 215 | 2.0 | 4.0 | 0.00 | 0.00 | 0.00 | 55 | 1011.3 |
| 20260901073059 | 60 | 0 | 0.0 | 6.0 | 0.00 | 0.00 | 0.00 | 55 | 1011.2 |
| 20260901072542 | 60 | 0 | 1.0 | 9.0 | 0.00 | 0.00 | 0.00 | 55 | 1011.3 |
| 20260901072043 | 60 | 240 | 2.0 | 9.0 | 0.00 | 0.00 | 0.00 | 55 | 1011.2 |
| 20260901071555 | 60 | 223 | 0.0 | 3.0 | 0.00 | 0.00 | 0.00 | 55 | 1011.2 |
| 20260901071040 | 60 | 0 | 0.0 | 7.0 | 0.00 | 0.00 | 0.00 | 55 | 1011.3 |
| 20260901070542 | 60 | 223 | 2.0 | 8.0 | 0.00 | 0.00 | 0.00 | 55 | 1011.3 |
| 20260901065544 | 59 | 198 | 1.0 | 7.0 | 0.00 | 0.00 | 0.00 | 55 | 1011.4 |
| 20260901065040 | 59 | 236 | 1.0 | 7.0 | 0.00 | 0.00 | 0.00 | 55 | 1011.3 |
| 20260901064558 | 59 | 217 | 2.0 | 8.0 | 0.00 | 0.00 | 0.00 | 55 | 1011.3 |
| 20260901064043 | 59 | 212 | 2.0 | 9.0 | 0.00 | 0.00 | 0.00 | 55 | 1011.4 |
| 20260901063542 | 59 | 223 | 2.0 | 9.0 | 0.00 | 0.00 | 0.00 | 55 | 1011.2 |
| 20260901063059 | 59 | 217 | 3.0 | 8.0 | 0.00 | 0.00 | 0.00 | 55 | 1011.1 |
| 20260901062541 | 59 | 273 | 1.0 | 9.0 | 0.00 | 0.00 | 0.00 | 56 | 1011.2 |
| 20260901062045 | 59 | 206 | 3.0 | 9.0 | 0.00 | 0.00 | 0.00 | 56 | 1011.2 |
| 20260901061558 | 59 | 205 | 2.0 | 5.0 | 0.00 | 0.00 | 0.00 | 55 | 1011.3 |
| 20260901061039 | 59 | 218 | 2.0 | 8.0 | 0.00 | 0.00 | 0.00 | 55 | 1011.3 |
| 20260901060543 | 59 | 227 | 2.0 | 8.0 | 0.00 | 0.00 | 0.00 | 55 | 1011.3 |
| 20260901060059 | 59 | 224 | 3.0 | 6.0 | 0.00 | 0.00 | 0.00 | 55 | 1011.4 |
| 20260901055540 | 59 | 200 | 1.0 | 6.0 | 0.00 | 0.00 | 0.00 | 55 | 1011.5 |
| 20260901055040 | 59 | 217 | 2.0 | 6.0 | 0.00 | 0.00 | 0.00 | 55 | 1011.5 |
| 20260901054553 | 59 | 0 | 2.0 | 6.0 | 0.00 | 0.00 | 0.00 | 55 | 1011.5 |
| 20260901054040 | 59 | 199 | 3.0 | 10.0 | 0.00 | 0.00 | 0.00 | 56 | 1011.4 |
| 20260901053541 | 59 | 215 | 5.0 | 10.0 | 0.00 | 0.00 | 0.00 | 56 | 1011.4 |
| 20260901053107 | 59 | 221 | 3.0 | 10.0 | 0.00 | 0.00 | 0.00 | 56 | 1011.4 |
| 20260901052540 | 59 | 223 | 3.0 | 10.0 | 0.00 | 0.00 | 0.00 | 56 | 1011.2 |
| 20260901052040 | 59 | 223 | 1.0 | 8.0 | 0.00 | 0.00 | 0.00 | 57 | 1011.2 |
| 20260901051551 | 59 | 187 | 2.0 | 7.0 | 0.00 | 0.00 | 0.00 | 57 | 1011.2 |
| 20260901051040 | 59 | 217 | 2.0 | 7.0 | 0.00 | 0.00 | 0.00 | 57 | 1011.2 |
| 20260901050541 | 59 | 207 | 1.0 | 6.0 | 0.00 | 0.00 | 0.00 | 57 | 1011.2 |
| 20260901050049 | 58 | 205 | 3.0 | 6.0 | 0.00 | 0.00 | 0.00 | 57 | 1011.2 |
| 20260901045541 | 59 | 0 | 0.0 | 2.0 | 0.00 | 0.00 | 0.00 | 57 | 1011.3 |
| 20260901045040 | 59 | 0 | 0.0 | 1.0 | 0.00 | 0.00 | 0.00 | 57 | 1011.3 |
| 20260901044617 | 59 | 0 | 0.0 | 3.0 | 0.00 | 0.00 | 0.00 | 56 | 1011.3 |
| 20260901044041 | 59 | 0 | 0.0 | 4.0 | 0.00 | 0.00 | 0.00 | 57 | 1011.3 |
| 20260901043541 | 59 | 202 | 0.0 | 4.0 | 0.00 | 0.00 | 0.00 | 57 | 1011.3 |
| 20260901043130 | 59 | 200 | 0.0 | 1.0 | 0.00 | 0.00 | 0.00 | 57 | 1011.3 |
| 20260901042542 | 59 | 0 | 0.0 | 5.0 | 0.00 | 0.00 | 0.00 | 57 | 1011.3 |
| 20260901042040 | 59 | 0 | 0.0 | 5.0 | 0.00 | 0.00 | 0.00 | 57 | 1011.2 |
| 20260901041550 | 59 | 0 | 0.0 | 3.0 | 0.00 | 0.00 | 0.00 | 57 | 1011.2 |
| 20260901041042 | 59 | 0 | 0.0 | 3.0 | 0.00 | 0.00 | 0.00 | 57 | 1011.2 |
| 20260901040540 | 59 | 0 | 0.0 | 3.0 | 0.00 | 0.00 | 0.00 | 57 | 1011.2 |
| 20260901040050 | 59 | 0 | 0.0 | 3.0 | 0.00 | 0.00 | 0.00 | 57 | 1011.0 |
| 20260901035539 | 59 | 0 | 0.0 | 2.0 | 0.00 | 0.00 | 0.00 | 57 | 1011.0 |
| 20260901035038 | 59 | 0 | 0.0 | 3.0 | 0.00 | 0.00 | 0.00 | 57 | 1010.9 |
| 20260901034601 | 59 | 0 | 0.0 | 3.0 | 0.00 | 0.00 | 0.00 | 57 | 1011.0 |
| 20260901034041 | 59 | 205 | 0.0 | 4.0 | 0.00 | 0.00 | 0.00 | 57 | 1011.0 |
| 20260901033539 | 59 | 205 | 0.0 | 4.0 | 0.00 | 0.00 | 0.00 | 57 | 1010.9 |
| 20260901033052 | 59 | 206 | 0.0 | 5.0 | 0.00 | 0.00 | 0.00 | 57 | 1010.9 |
| 20260901032544 | 59 | 206 | 2.0 | 5.0 | 0.00 | 0.00 | 0.00 | 56 | 1010.9 |
| 20260901032039 | 59 | 211 | 0.0 | 5.0 | 0.00 | 0.00 | 0.00 | 57 | 1010.8 |
| 20260901031553 | 59 | 0 | 0.0 | 4.0 | 0.00 | 0.00 | 0.00 | 57 | 1010.7 |
| 20260901031038 | 59 | 254 | 1.0 | 4.0 | 0.00 | 0.00 | 0.00 | 57 | 1010.7 |
| 20260901030541 | 60 | 254 | 0.0 | 3.0 | 0.00 | 0.00 | 0.00 | 58 | 1010.6 |
| 20260901030048 | 60 | 255 | 0.0 | 2.0 | 0.00 | 0.00 | 0.00 | 57 | 1010.5 |
| 20260901025539 | 60 | 0 | 0.0 | 3.0 | 0.00 | 0.00 | 0.00 | 59 | 1010.4 |
| 20260901025043 | 60 | 0 | 0.0 | 6.0 | 0.00 | 0.00 | 0.00 | 58 | 1010.5 |
| 20260901024600 | 60 | 0 | 1.0 | 6.0 | 0.00 | 0.00 | 0.00 | 58 | 1010.4 |
| 20260901024042 | 61 | 205 | 0.0 | 6.0 | 0.00 | 0.00 | 0.00 | 58 | 1010.5 |
| 20260901023540 | 61 | 205 | 0.0 | 4.0 | 0.00 | 0.00 | 0.00 | 58 | 1010.5 |
| 20260901023052 | 61 | 190 | 0.0 | 3.0 | 0.00 | 0.00 | 0.00 | 55 | 1010.6 |
| 20260901022541 | 61 | 190 | 0.0 | 7.0 | 0.00 | 0.00 | 0.00 | 55 | 1010.4 |
| 20260901022040 | 61 | 0 | 2.0 | 7.0 | 0.00 | 0.00 | 0.00 | 55 | 1010.4 |
| 20260901021609 | 61 | 205 | 1.0 | 7.0 | 0.00 | 0.00 | 0.00 | 55 | 1010.3 |
| 20260901021045 | 61 | 0 | 0.0 | 7.0 | 0.00 | 0.00 | 0.00 | 54 | 1010.4 |
| 20260901020541 | 61 | 209 | 2.0 | 7.0 | 0.00 | 0.00 | 0.00 | 54 | 1010.3 |
| 20260901020110 | 62 | 0 | 1.0 | 7.0 | 0.00 | 0.00 | 0.00 | 54 | 1010.4 |
| 20260901015541 | 62 | 188 | 1.0 | 7.0 | 0.00 | 0.00 | 0.00 | 53 | 1010.4 |
| 20260901015042 | 62 | 0 | 1.0 | 7.0 | 0.00 | 0.00 | 0.00 | 53 | 1010.5 |
| 20260901014551 | 62 | 192 | 1.0 | 7.0 | 0.00 | 0.00 | 0.00 | 53 | 1010.6 |
| 20260901014039 | 63 | 208 | 0.0 | 4.0 | 0.00 | 0.00 | 0.00 | 53 | 1010.6 |
| 20260901013541 | 63 | 0 | 1.0 | 4.0 | 0.00 | 0.00 | 0.00 | 52 | 1010.6 |
| 20260901013103 | 63 | 221 | 1.0 | 6.0 | 0.00 | 0.00 | 0.00 | 52 | 1010.6 |
| 20260901012540 | 63 | 205 | 0.0 | 6.0 | 0.00 | 0.00 | 0.00 | 52 | 1010.7 |
| 20260901012041 | 63 | 204 | 1.0 | 6.0 | 0.00 | 0.00 | 0.00 | 51 | 1010.6 |
| 20260901011558 | 64 | 0 | 1.0 | 9.0 | 0.00 | 0.00 | 0.00 | 51 | 1010.6 |
| 20260901011039 | 64 | 196 | 0.0 | 9.0 | 0.00 | 0.00 | 0.00 | 50 | 1010.6 |
| 20260901010539 | 64 | 176 | 2.0 | 9.0 | 0.00 | 0.00 | 0.00 | 50 | 1010.6 |
| 20260901010100 | 64 | 262 | 2.0 | 9.0 | 0.00 | 0.00 | 0.00 | 50 | 1010.5 |